Погода в Приморке

Россия / Ростовская область     47°16′40″N   39°03′06″E
темп.,
°C
ветер,
м/с
пор.,
м/с
влажн.,
%
обл.,
%
осадки,
мм/ч
давл.,
гПа
погр.,
м
18 мая, ср
ср1800:00+14юз345299 0.0 1013173
03:00+14юз697495 0.1 1012374
06:00+14ююз61077100 0.0 1011333
09:00+14ююз8981100 2.2 1010379
12:00+14зюз2386100 3.9 1010327
15:00+13сз91293100 12.0 1010673
18:00+13ю6987100 2.1 1009648
21:00+13ю6890100 2.8 1009537
19 мая, чт
чт1900:00+13ююв5690100 0.6 1010457
03:00+12в3594100 0.8 1010360
06:00+12юв3591100 0.4 1010428
09:00+13ююз778899 1.2 1012641
12:00+13ююз9107959 0.8 1013943
15:00+13ю447796 1.4 1013892
18:00+14с797467 0.6 1014867
21:00+11ссз7138888 0.6 1017514
20 мая, пт
пт2000:00+10зсз468945 0.0 1018146
03:00+12сз4777100 0.0 1018204
06:00+11сз597998 0.0 1019252
09:00+15сз576262 0.0 1020603
12:00+18сз565228 0.1 10201739
15:00+17зсз2562100 0.3 1019296
18:00+16зюз4566100 0.6 1018131
21:00+14зюз5778100 0.7 1019209
21 мая, сб
сб2100:00+15юз5977100 0.1 1016256
03:00+15зюз41077100 0.5 1015565
06:00+16зюз91579100 0.4 1012704
09:00+17юз121775100 0.4 10101079
12:00+15юз142083100 0.1 10081121
15:00+17юз141976100 0.1 10061347
18:00+16з71279100 1.8 1005622
21:00+11с91188100 1.9 1009519
22 мая, вс
вс2200:00+7ссв7108387 0.1 1012628
03:00+7св478399 0.1 1013326
06:00+7всв468115 0.0 1013308
09:00+10в4566100 0.0 1012648
12:00+11в4570100 0.5 1010546
15:00+10в3479100 1.6 1009469
18:00+9всв3590100 3.2 1009410
21:00+9всв6986100 4.2 1009508